World > North America > United States > New York

Hourly South Hannibal, NY Regional Weather

Feedback E-mail the Weather

Latest News

South Hannibal, NY Weather Maps

°F °C°F °C
South Hannibal Weather Map
UTC Time: 5/27/2022, 06:39
Your Time:

South Hannibal, NY Regional Weather

Expires:202205270700;;636512
ASUS41 KALY 270610
RWRALY

NEW YORK STATE HOURLY WEATHER ROUNDUP
NATIONAL WEATHER SERVICE ALBANY NY
200 AM EDT FRI MAY 27 2022

NOTE: "FAIR" INDICATES FEW OR NO CLOUDS BELOW 12,000 FEET WITH NO
SIGNIFICANT WEATHER AND/OR NO OBSTRUCTIONS TO VISIBILITY.


NYZ005>009-017-018-044>046-055-056-270700-
CENTRAL

  
CITY           SKY/WX    TMP DP  RH WIND       PRES   REMARKS
FULTON         LGT RAIN  66  61  84 S8        29.88F                  
SYRACUSE       LGT RAIN  68  60  75 S14       29.89F                  
ROME           CLOUDY    69  59  70 SE6       29.94F                  
ELMIRA         CLOUDY    69  60  73 S9        29.93F                  
BINGHAMTON     CLOUDY    63  59  87 S12G20    29.97F                  
MONTICELLO     CLOUDY    61  60  97 VRB3      30.05F FOG              
$$


SKY/WX - Weather  TMP - Temperature  DP - Dew Point  RH - Humidity
WIND - Wind Direction/Speed PRES - Barometric Pressure VSB - Visibility
WCI - Wind Chill Index E13G22 Wind - East Wind 13 mph/Gusts of 22 mph

Trending Headlines

South Hannibal Radar Loop



South Hannibal Quick Facts


National Two Day Weather Forecast


E-mail the South Hannibal Weather Forecast

Voice your opinion or tell us about page issues...